FENGYUN 1C DEB, 31781

Orbit data source: Space-Track

FENGYUN 1C DEB, 31781 is space debris in SSO originally from a launch on Mon, 10 May 1999 UTC launched from the Taiyaun Space Center, China (TSC). Fengyun 1C debris stems from the Chinese weather satellite Fengyun-1C, which was intentionally destroyed by a Chinese anti-satellite missile in 2007. This event dramatically increased the amount of space debris, with thousands of trackable fragments posing hazards to satellites and human spaceflight. The Fengyun 1C debris cloud has become a focal point in discussions about space sustainability and the need for international regulations to prevent the creation of new debris.

Loading next visibility...
Identifier
31781, 1999-025CGG
Orbit
SSO
Country
Flag of CNCN / PRC
Related business
Manufacturer
Unknown
Mission
Spacecraft
Bus & Motor
Unknown
Mass
Unknown
Launch date (UTC)
1999-05-10 (27 years ago)
Launch vehicle
Unknown
Launch site
Taiyaun Space Center, China (TSC)
Object type
Payload
Rocket body
Debris
Shape & HBR
Unknown shape, 0.1 m
Radar Cross Section
Small (<0.1 m²)

Expand to show TLE details & history
Last TLE update: 6 days ago

TLE from 6 days ago
0 FENGYUN 1C DEB
1 31781U 99025CGG 26139.22291801  .00004514  00000-0  19496-2 0  9996
2 31781  99.5041 325.2144 0194681 194.2900 165.2717 14.15340281705746
Epoch: 2026-05-19T05:21Z
TLE epoch observation values (Epoch: 2026-05-19T05:21:00.116Z)
Latitude
-0.00005°
Longitude
8.06401°
Altitude
980.164 km
Speed
7.292 km/s
True Right ascension
21h 40m 51s
True Declination
0° 00' 00"
Sunlit
Object was in daylight at epoch
Visualization orbit readout
Latitude
Unknown
Longitude
Unknown
Altitude
Unknown
Speed
Unknown
Apparent Right ascension
Unknown
Apparent Declination
Unknown
Sunlit
N/A
Visualization observer readout
Local Sidereal Time
21:43:01
Azimuth
Unknown
Elevation
Unknown
Doppler factor
Unknown
Orbital elements
Apogee altitude
978.849 km
Perigee altitude
697.866 km
Semi-major axis
7,216.495 km
Eccentricity
0.01947
Inclination
99.5041°
RAAN
325.2144°
Arg. of periapsis
194.29°
True anomaly
165.82581°
Mean anomaly
165.2717°
Eccentric anomaly
165.55004°
Mean motion
3.54041 °/min
Orbital period
101.68 mins
BSTAR
0.0019496
Loading maneuver chart data...
Computing Atmospheric mass density...
Loading historical data...
Loading historical data...
Loading historical data...
Loading historical data...
Loading historical data...
Loading historical data...
Loading historical data...

Documentation

Showing up to 5 results
|